Total_Precipitation_Accumulation
2.29 2.30 2.32 2.24 2.25 2.25 2.44 2.66 2.76 2.60 2.45 2.15 1.92 1.72 1.75 1.80 2.04 1.87 1.60 1.61 1.51 1.42 1.40 1.42 1.56 1.81 2.05 2.23 2.48 2.62 2.75 2.87 2.98 3.00 2.86 2.69 2.74 2.89
2.03 2.09 2.11 2.10 2.22 2.21 2.33 2.54 2.61 2.61 2.52 2.23 2.04 1.91 1.91 1.81 1.96 1.75 1.68 1.84 1.66 1.48 1.40 1.41 1.43 1.55 1.64 1.73 1.83 1.88 1.89 1.93 2.11 2.45 2.51 2.34 2.27 2.37
1.66 1.72 1.79 1.82 2.01 2.03 2.16 2.33 2.47 2.49 2.32 2.15 2.10 2.03 1.98 1.98 1.95 1.78 1.67 1.67 1.65 1.53 1.39 1.36 1.41 1.46 1.51 1.61 1.67 1.65 1.63 1.64 1.77 2.07 2.22 2.10 2.01 1.98
1.56 1.58 1.56 1.60 1.73 1.81 1.92 2.03 2.24 2.37 2.30 2.21 2.18 1.98 1.77 1.81 1.95 1.95 1.87 1.76 1.76 1.81 1.69 1.58 1.58 1.53 1.46 1.55 1.65 1.61 1.55 1.57 1.56 1.73 1.86 1.82 1.87 1.94
1.28 1.31 1.34 1.43 1.60 1.65 1.70 1.85 2.05 2.16 2.29 2.25 2.22 2.00 1.78 1.71 1.86 1.82 1.83 2.04 1.93 1.98 2.12 1.99 1.81 1.69 1.58 1.58 1.63 1.58 1.51 1.56 1.47 1.48 1.68 1.71 1.71 1.79
1.18 1.16 1.11 1.16 1.31 1.48 1.58 1.78 1.99 2.20 2.32 2.30 2.29 2.12 1.97 1.84 1.87 1.98 2.00 2.07 2.09 1.87 1.94 2.03 2.05 1.94 1.81 1.68 1.67 1.66 1.65 1.64 1.61 1.60 1.66 1.63 1.61 1.62
1.07 1.11 1.09 1.11 1.16 1.25 1.26 1.48 1.73 2.03 2.21 2.29 2.29 2.23 2.09 1.98 1.85 2.01 2.07 2.17 2.26 2.22 2.12 2.01 2.04 1.89 1.83 1.83 1.76 1.74 1.78 1.77 1.79 1.78 1.68 1.61 1.54 1.56
1.12 1.08 1.05 1.05 1.17 1.21 1.19 1.25 1.44 1.63 1.83 1.93 1.98 1.99 1.99 2.03 2.12 2.13 2.10 2.13 2.19 2.20 2.10 2.19 2.22 2.16 1.93 1.81 1.87 1.85 1.85 1.85 1.84 1.77 1.65 1.55 1.49 1.52
1.12 1.17 1.17 1.06 1.13 1.16 1.25 1.23 1.19 1.25 1.45 1.65 1.72 1.71 1.79 1.83 2.08 2.12 2.10 2.11 2.00 2.05 1.98 2.12 2.10 2.10 1.99 1.97 2.08 1.90 1.89 1.86 1.87 1.83 1.78 1.72 1.60 1.59
1.09 1.13 1.33 1.32 1.22 1.24 1.31 1.37 1.24 1.08 1.14 1.24 1.43 1.57 1.63 1.81 2.13 2.35 2.29 2.04 1.93 1.93 1.88 2.02 1.99 1.98 1.93 1.87 2.01 1.95 1.85 1.79 1.79 1.82 1.79 1.78 1.71 1.66
1.02 1.12 1.22 1.29 1.28 1.32 1.26 1.29 1.32 1.18 1.16 1.25 1.29 1.41 1.60 1.76 2.03 2.32 2.38 2.25 2.05 1.91 1.78 1.81 1.90 1.98 2.05 1.92 1.88 1.98 1.94 1.89 1.84 1.86 1.89 1.89 1.85 1.86
0.87 1.07 1.29 1.23 1.23 1.30 1.27 1.33 1.41 1.24 1.16 1.27 1.27 1.32 1.39 1.64 2.02 2.21 2.35 2.33 2.18 2.09 1.88 1.85 1.92 2.04 2.35 2.24 1.97 1.88 1.90 2.03 2.05 1.96 1.90 1.96 2.03 1.96
0.86 0.96 1.03 1.07 1.08 1.19 1.24 1.24 1.39 1.33 1.33 1.46 1.50 1.45 1.52 1.59 1.73 1.90 2.17 2.32 2.23 2.05 1.88 2.03 2.16 2.11 2.15 2.18 2.11 1.95 1.89 1.88 1.95 2.02 2.01 2.00 2.00 1.92
0.94 0.93 0.89 0.94 0.99 1.02 1.01 1.06 1.29 1.44 1.49 1.62 1.64 1.58 1.54 1.58 1.64 1.71 1.87 2.02 2.00 1.93 1.84 1.80 1.94 1.94 1.89 1.77 1.80 1.88 1.90 1.91 1.90 1.98 2.03 2.27 2.17 2.10
0.93 0.99 0.99 0.99 1.01 0.97 0.96 1.04 1.22 1.40 1.58 1.63 1.53 1.44 1.49 1.56 1.60 1.75 1.88 1.97 1.97 1.89 1.72 1.56 1.62 1.72 1.73 1.64 1.54 1.64 1.84 1.89 1.81 1.83 1.91 1.96 2.05 2.04
0.98 1.02 1.07 1.05 1.00 0.96 1.02 1.13 1.26 1.46 1.59 1.54 1.50 1.41 1.46 1.61 1.68 1.72 1.83 1.88 1.94 1.92 1.70 1.56 1.58 1.67 1.71 1.61 1.55 1.52 1.61 1.74 1.75 1.75 1.86 1.93 1.90 1.85
0.99 1.03 1.08 1.15 1.13 1.16 1.27 1.33 1.31 1.35 1.44 1.35 1.43 1.41 1.43 1.55 1.62 1.64 1.75 1.75 1.69 1.62 1.61 1.52 1.53 1.64 1.65 1.66 1.68 1.57 1.58 1.63 1.62 1.71 1.86 1.98 1.94 1.76
1.08 1.07 1.15 1.24 1.31 1.37 1.46 1.44 1.37 1.33 1.35 1.35 1.40 1.42 1.39 1.42 1.47 1.59 1.75 1.77 1.79 1.68 1.54 1.48 1.47 1.62 1.74 1.80 1.75 1.59 1.61 1.69 1.77 1.80 1.78 1.80 1.79 1.69
1.04 1.12 1.30 1.32 1.29 1.34 1.43 1.46 1.36 1.26 1.26 1.28 1.30 1.32 1.33 1.36 1.42 1.53 1.66 1.71 1.76 1.72 1.64 1.58 1.61 1.68 1.75 1.65 1.53 1.42 1.53 1.64 1.76 1.85 1.80 1.67 1.58 1.55
0.91 1.04 1.21 1.22 1.23 1.28 1.28 1.24 1.21 1.20 1.22 1.22 1.21 1.21 1.24 1.32 1.39 1.48 1.52 1.49 1.56 1.62 1.65 1.62 1.60 1.60 1.65 1.61 1.53 1.37 1.38 1.53 1.68 1.81 1.76 1.65 1.58 1.74
0.88 0.99 1.11 1.19 1.21 1.21 1.21 1.18 1.19 1.22 1.20 1.20 1.19 1.22 1.25 1.29 1.31 1.32 1.38 1.45 1.43 1.42 1.52 1.53 1.48 1.61 1.60 1.68 1.68 1.47 1.36 1.54 1.69 1.73 1.75 1.82 1.77 1.64
0.86 0.90 1.02 1.13 1.19 1.22 1.20 1.18 1.17 1.18 1.17 1.17 1.17 1.20 1.24 1.29 1.29 1.28 1.30 1.33 1.31 1.32 1.34 1.38 1.42 1.58 1.67 1.74 1.64 1.45 1.41 1.46 1.69 1.91 1.86 1.86 1.75 1.65
0.91 0.91 0.95 1.03 1.15 1.25 1.27 1.23 1.19 1.18 1.18 1.16 1.19 1.23 1.26 1.29 1.29 1.31 1.33 1.33 1.32 1.33 1.36 1.42 1.50 1.63 1.66 1.61 1.58 1.50 1.45 1.46 1.55 1.70 1.74 1.75 1.64 1.54